sat.trackr.live / text

‹ back to catalog

YUNHAI-2 01A

NORAD 43909 · 2018-112A

PAYLOAD ACTIVE UNKNOWN

§ Identity

Operator
Country
PRC
Launch date
2018-12-29
Launch site
JSC
Launch vehicle
Mass (kg)
RCS (m²)

External: N2YO · Heavens-Above · Gunter

§ Orbital elements

Epoch: 2026-09-20T04:58:27.265728Z

Period
100.77 min
Inclination
50.0115°
Eccentricity
0.0000465
Mean motion
14.29053319 rev/d
Perigee alt
794.6 km
Apogee alt
795.2 km
Semi-major
7,173.0 km
B*
8.8172e-5
RAAN
0.8442°
Arg perigee
186.7076°
Mean anomaly
173.3833°
Rev number
40,467

§ Raw data

YUNHAI-2 01A1 43909U 18112A   26263.20726002  .00000063  00000+0  88172-4 0  99942 43909  50.0115   0.8442 0000465 186.7076 173.3833 14.29053319404673

JSON: /api/v1/satellites/43909 · /tle

For live sub-satellite position, see the globe view (requires WebGL).

§ Visibility from observer

Set your observer location to see the next 7 days of passes ≥ 10°. The values pass through the URL so the page stays shareable.

No JS? Fill the form by hand. The geolocation button needs JavaScript.